This is the latest recevied weather packets stored in our database for station/object ZS2JO. If no packets are shown the sender has not sent any weather packets the latest 10 day(s).
| Time | Temp. | Humidity | Pressure | Rain* | Wind** | Luminosity | Snow |
|---|---|---|---|---|---|---|---|
| 1778249035 | 15.56° C | 86% | 1020.4 hPa | 0 mm | - | 124 W/m² | - |
| 1778248731 | 15.56° C | 86% | 1020.4 hPa | 0 mm | - | 139 W/m² | - |
| 1778248428 | 15° C | 85% | 1020.3 hPa | 0 mm | - | 95 W/m² | - |
| 1778248124 | 15° C | 84% | 1020.5 hPa | 0 mm | - | 107 W/m² | - |
| 1778247821 | 15.56° C | 84% | 1020.4 hPa | 0 mm | - | 105 W/m² | - |
| 1778247517 | 15.56° C | 82% | 1020.2 hPa | 0 mm | - | 122 W/m² | - |
| 1778247215 | 15.56° C | 81% | 1020.3 hPa | 0 mm | - | 145 W/m² | - |
| 1778246912 | 15.56° C | 80% | 1020.1 hPa | 0 mm | - | 130 W/m² | - |
| 1778246610 | 16.11° C | 79% | 1020.2 hPa | 0 mm | - | 161 W/m² | - |
| 1778246306 | 16.11° C | 78% | 1020.3 hPa | 0 mm | - | 367 W/m² | - |
| 1778246002 | 16.67° C | 77% | 1020.2 hPa | 0 mm | - | 375 W/m² | - |
| 1778245699 | 16.67° C | 77% | 1020.3 hPa | 0 mm | - | 198 W/m² | - |
| 1778245396 | 16.67° C | 75% | 1020.2 hPa | 0 mm | - | 457 W/m² | - |
| 1778245092 | 17.22° C | 76% | 1020.2 hPa | 0 mm | - | 527 W/m² | - |
| 1778244788 | 16.67° C | 78% | 1020.1 hPa | 0 mm | - | 487 W/m² | - |
| 1778244486 | 16.11° C | 78% | 1020.3 hPa | 0 mm | - | 345 W/m² | - |
| 1778244183 | 16.67° C | 77% | 1020.1 hPa | 0 mm | - | 266 W/m² | - |
| 1778243881 | 16.67° C | 79% | 1020.3 hPa | 0 mm | - | 320 W/m² | - |
| 1778243579 | 16.11° C | 80% | 1020.2 hPa | 0 mm | - | 450 W/m² | - |
| 1778243275 | 16.11° C | 81% | 1020.3 hPa | 0 mm | - | 526 W/m² | - |
| 1778242972 | 15.56° C | 84% | 1020.3 hPa | 0 mm | - | 312 W/m² | - |
| 1778242669 | 15.56° C | 87% | 1020.4 hPa | 0 mm | - | 233 W/m² | - |
| 1778242368 | 15.56° C | 83% | 1020.4 hPa | 0 mm | - | 235 W/m² | - |
| 1778242064 | 15.56° C | 84% | 1020.5 hPa | 0 mm | - | 495 W/m² | - |
| 1778241763 | 15° C | 85% | 1020.2 hPa | 0 mm | - | 478 W/m² | - |
* Rain latest hour (hover to see other rain measurements)
** Current wind speed in m/s (hover to see current wind gust speed)